Location: Cravenby
(33.9264°S, 18.5936°E)
Time: 10:36:56
(UTC+00:00)

Daily predictions for brighter satellites

Satellite Brightness Start Highest point End
(mag) Time Altitude Azimuth Time Altitude Azimuth Time Altitude Azimuth
Cosmos 1844 Rocket 2.8 18:16:47 10° SSW 18:22:28 90° ESE 18:28:04 10° NNE
YAOGAN 1 3.1 18:19:14 10° S 18:23:36 66° WSW 18:27:53 10° NNW
CZ-4C R/B 3.7 18:18:30 10° N 18:25:34 31° ENE 18:32:06 10° SE
H-2A R/B 3.1 18:24:02 10° SE 18:27:56 22° E 18:31:45 10° NE
Abrixas rocket 2.8 18:26:48 10° WSW 18:29:42 43° NW 18:32:33 10° NNE
Cosmos 1727 Rocket 4.0 18:27:41 10° N 18:33:53 79° E 18:40:13 10° S
Cosmos 1892 4.0 18:31:37 10° SSW 18:35:21 44° W 18:39:03 10° NNW
Cosmos 1980 3.8 18:35:03 10° N 18:40:34 56° ENE 18:46:09 10° SSE
Cosmos 1605 Rocket 4.2 18:34:30 10° S 18:40:41 78° W 18:46:52 10° N
CZ-3B Rocket 4.3 18:23:49 10° W 18:42:18 26° NW 18:47:31 10° NNE
CZ-4 R/B 4.0 18:40:52 10° SSW 18:44:02 24° WSW 18:47:11 10° NW
Cosmos 2219 Rocket 3.5 18:42:53 10° NW 18:48:14 45° WSW 18:53:37 10° S
CZ-2C R/B 3.0 18:43:32 10° N 18:49:06 72° WNW 18:54:37 10° SSW
Cosmos 1766 Rocket 4.1 18:46:02 10° SSW 18:50:32 62° W 18:54:59 10° N
USA 186 2.0 18:49:40 10° SSE 18:52:55 49° E 18:56:02 10° N
ATLAS 3B CENTAUR R/B 3.8 18:50:32 10° N 18:54:10 19° NE 19:00:08 10° E
Cosmos 1459 Rocket 4.4 18:48:37 10° S 18:54:49 47° E 19:00:31 12° NNE
Cosmos 1844 4.3 18:49:16 10° SSW 18:55:00 60° WNW 19:00:41 10° N
SPOT 3 Rocket 4.4 18:50:47 10° SE 18:55:16 28° E 18:59:08 13° NNE
CZ-2C R/B 3.5 18:53:45 10° SSE 18:58:07 34° E 19:02:22 11° NNE
Cosmos 2151 4.5 18:54:57 10° SSW 18:58:53 37° W 19:02:47 10° NNW
COSMOS 2428 4.4 18:54:05 10° NW 18:59:22 38° WSW 19:04:42 10° S
Cosmos 2221 2.5 18:55:30 10° N 18:59:50 71° E 19:04:16 10° SSE
Cosmos 1461 3.6 18:56:42 10° NW 19:01:22 67° WSW 19:06:02 10° SSE
Cosmos 1825 2.8 18:59:56 10° SSW 19:03:44 56° W 19:07:28 10° N
Cosmos 1802 Rocket 4.4 18:59:16 10° S 19:05:19 46° E 19:09:55 17° NNE
Cosmos 2100 Rocket 4.0 19:00:02 10° S 19:06:14 64° E 19:12:05 12° NNE
GPS 2-04 Rocket1 4.2 19:05:29 10° NNW 19:07:43 18° NNE 19:07:43 18° NNE
Cosmos 1408 Rocket 4.0 19:04:09 10° SSW 19:08:39 64° W 19:13:05 10° N
Cosmos 1110 Rocket 4.0 19:03:59 10° SSW 19:09:15 85° WNW 19:13:49 13° NNE
STARLINK-60 4.0 19:08:09 10° WSW 19:11:21 40° NW 19:13:11 21° N
SJ-6B 2.8 19:14:19 10° SSE 19:18:32 79° ENE 19:22:40 10° N
Cosmos 1869 3.2 19:16:16 16° N 19:19:19 66° E 19:23:15 10° SSE
Resurs 01 Rocket 2.8 19:16:09 10° SE 19:19:47 24° E 19:20:03 24° ENE
FREGAT/IRIS 4.1 19:18:13 10° S 19:20:50 35° WSW 19:23:25 10° NW
Cosmos 2251 Rocket 3.7 19:15:47 10° N 19:21:01 55° ENE 19:26:18 10° SSE
Cosmos 1241 Rocket 4.5 19:14:53 10° NNW 19:21:14 70° ENE 19:27:45 10° SSE
Cosmos 332 Rocket 4.3 19:18:45 10° SSW 19:23:38 58° WNW 19:27:41 14° N
Cosmos 371 Rocket 4.5 19:21:21 10° SSW 19:25:56 41° WNW 19:30:29 10° N
Mayak 0.6 19:27:41 17° ESE 19:28:07 17° ESE 19:30:56 10° SSE
Cosmos 1805 Rocket 4.1 19:27:11 10° S 19:31:25 41° E 19:32:32 34° ENE
Cosmos 1375 Rocket 4.4 19:25:22 10° SSW 19:31:43 76° ESE 19:35:13 28° NE
DEBRIS 3.3 19:32:21 10° SSW 19:34:03 25° SSE 19:34:03 25° SSE
Cosmos 2278 Rocket 2.1 19:29:36 10° SSW 19:35:21 80° ESE 19:38:18 30° NNE
Cosmos 2173 Rocket 4.1 19:29:43 10° S 19:35:52 78° W 19:41:01 15° N
Iridium 51 3.9 19:34:36 36° N 19:35:56 88° E 19:39:33 10° S
Cosmos 1238 Rocket 3.1 19:33:12 10° S 19:35:46 34° ESE 19:35:46 34° ESE
Cosmos 2061 Rocket 3.9 19:31:59 10° S 19:38:18 77° E 19:42:13 25° NNE
ARGOS Delta rocket 4.1 19:34:13 10° SSE 19:39:45 65° E 19:43:02 24° N
Cosmos 2123 Rocket 3.9 19:34:40 10° N 19:40:49 85° E 19:47:06 10° S
Cosmos 2237 Rocket 3.4 19:36:37 10° NW 19:42:00 44° WSW 19:47:27 10° S
Geosat 4.2 19:39:32 27° N 19:42:19 69° WNW 19:47:23 10° SSW
Cosmos 1500 Rocket 4.1 19:39:26 10° SSW 19:43:43 55° W 19:46:21 22° NNW
Thor Agena Rocket 3.8 19:42:08 36° ENE 19:43:51 51° ESE 19:48:52 10° S
FALCON 9 DEB 4.3 19:41:07 10° WSW 19:44:16 32° NW 19:44:48 31° NNW
Cosmos 1743 Rocket 4.4 19:41:03 10° SSW 19:45:22 48° W 19:48:26 18° NNW
Cosmos 1725 Rocket 4.0 19:41:31 10° S 19:47:54 70° E 19:50:53 33° NNE
BREEZE-M DEB (TANK) 4.4 19:49:46 10° NW 19:50:56 15° NNW 19:50:56 15° NNW
GENESIS II 4.5 19:50:56 10° SSW 19:54:39 50° ESE 19:54:40 50° ESE
SL-08 RB Rocket 4.1 19:50:25 10° S 19:55:04 65° WSW 19:58:40 17° NNW
ARGOS 3.8 19:50:15 10° S 19:55:33 56° WSW 20:00:47 10° NNW
Cosmos 1302 Rocket 4.3 19:52:32 10° SSW 19:57:50 65° WNW 20:00:04 34° N
ATLAS 5 CENTAUR R/B 4.4 19:54:00 10° WNW 20:03:00 49° NNE 20:49:38 10° ENE
SL-16 R/B 2.2 19:58:43 10° NNW 20:04:22 82° WSW 20:10:07 10° SSE
H-2A R/B 3.6 20:02:53 10° S 20:07:22 33° WSW 20:11:44 10° NW
Spot 2 Rocket 4.1 20:02:38 10° SSE 20:06:50 38° E 20:06:50 38° E
Cosmos 1633 2.7 20:04:27 10° S 20:07:50 70° SW 20:07:50 70° SW
Lacrosse 5 rocket 2.1 20:06:33 10° SSW 20:10:08 41° SE 20:10:08 41° SE
Cosmos 407 Rocket 4.5 20:13:43 31° ESE 20:13:43 31° ESE 20:17:00 10° SE
CZ-4C R/B 3.6 20:05:57 10° NW 20:14:02 55° WSW 20:21:12 10° SSE
Cosmos 1151 Rocket 3.6 20:15:31 48° SE 20:15:31 48° SE 20:19:04 10° SSE
USA 234 3.1 20:08:10 10° SE 20:14:47 73° NE 20:21:21 10° NW
SL-24 DEB 4.2 20:12:43 10° S 20:17:15 67° ESE 20:17:15 67° ESE
Cosmos 1666 Rocket 3.6 20:19:30 10° S 20:23:27 71° SSE 20:23:27 71° SSE
MetOp-B 4.1 20:19:57 10° SSE 20:25:21 66° E 20:25:21 66° E
Cosmos 1400 Rocket 3.5 20:27:37 53° S 20:27:37 53° S 20:30:54 10° S
Cosmos 1328 Rocket 3.8 20:31:30 65° S 20:31:30 65° S 20:35:18 10° S
Cosmos 1943 Rocket 3.6 20:27:02 10° S 20:31:36 24° ESE 20:31:45 24° ESE
USA 245 4.4 20:29:51 10° SSE 20:36:03 70° E 20:36:31 67° NE
Cosmos 292 Rocket 4.0 20:35:17 10° SSW 20:39:35 68° S 20:39:35 68° S
Sich 1 4.1 20:37:07 10° SSW 20:41:19 40° W 20:41:26 40° W
Aureole 1 Rocket 4.0 20:41:06 37° NW 20:43:37 67° WSW 20:48:46 10° S
Cosmos 1633 Rocket 3.7 20:42:23 10° SSW 20:46:07 54° SW 20:46:07 54° SW
ERS-1 Rocket 4.2 20:44:44 10° SSE 20:47:43 32° SE 20:47:43 32° SE
Cosmos 1943 4.3 20:54:04 33° SE 20:54:04 33° SE 20:57:26 10° SSE
Resurs 01 Rocket 3.6 20:52:29 10° SSW 20:56:08 25° WSW 20:57:37 21° W
Cosmos 2369 Rocket 3.4 20:52:45 10° S 20:57:11 30° SE 20:57:11 30° SE
Mayak 0.5 21:04:16 29° WSW 21:04:16 29° WSW 21:07:16 10° SSW
Lacrosse 4 Rocket 3.4 21:09:57 10° SSW 21:11:51 25° S 21:11:51 25° S
NOSS 3-1 (C) 3.5 21:09:07 10° SSW 21:14:19 65° SSW 21:14:19 65° SSW
ATLAS 3B CENTAUR R/B 3.6 21:10:56 10° WNW 21:20:24 53° NE 21:35:18 10° E
SPOT 1/Viking Rocket 4.2 21:18:36 10° S 21:22:53 53° SSW 21:22:53 53° SSW
Tsikada Rocket 4.4 21:34:01 60° SSE 21:34:01 60° SSE 21:39:20 10° S
Terra 3.5 21:28:02 10° SSE 21:30:25 29° SSE 21:30:25 29° SSE
Cosmos 2034 Rocket 4.2 21:29:11 10° S 21:34:44 68° S 21:34:44 68° S
Cosmos 1464 Rocket 4.3 21:31:25 10° SSW 21:36:49 59° WSW 21:36:49 59° WSW
USA 229 DEB 4.1 21:39:45 10° SW 21:45:13 50° W 21:45:13 50° W
USA 229 4.1 21:39:52 10° SW 21:45:21 51° W 21:45:21 51° W
NOSS 3-1 (A) 4.1 21:48:20 10° SSW 21:52:32 45° SW 21:52:32 45° SW
Cosmos 1943 Rocket 3.7 22:10:08 10° SW 22:13:16 29° WSW 22:13:16 29° WSW
Cosmos 2369 Rocket 4.2 22:36:47 10° SW 22:38:58 20° WSW 22:38:58 20° WSW
CZ-2D R/B 3.8 23:02:19 28° SE 23:02:19 28° SE 23:05:24 10° S
Resurs 1-4 Rocket 3.5 23:36:25 36° S 23:36:25 36° S 23:39:31 10° S
ARIANE 5 R/B 4.4 23:45:57 23° ESE 23:45:57 23° ESE 23:49:24 10° SSE
SeaSat 1 4.0 23:45:59 10° SSE 23:48:36 32° SSE 23:48:36 32° SSE
